Lynchburg, VA

8:14 AM EDT on August 18, 2019 (GMT -0400)
Lynchburg Regional-Glenn

Weather History for KLYH - July, 2019

Change the Weather History Date:

Monday, July 15, 2019

  Actual Average Record
Temperature  
Mean Temperature 81 °F 75 °F  
Max Temperature 93 °F 87 °F 101 °F (1936)
Min Temperature 69 °F 64 °F 53 °F (2001)
Degree Days  
Heating Degree Days 0 0  
Month to date heating degree days 0 0  
Since 1 June heating degree days 2 14  
Since 1 July heating degree days 0 0  
Cooling Degree Days 16 10  
Month to date cooling degree days 216 150  
Year to date cooling degree days 646 446  
Since 1 June cooling degree days 434 364  
Growing Degree Days 30 (Base 50)    
Moisture  
Dew Point 68 °F    
Average Humidity 70    
Maximum Humidity 93    
Minimum Humidity 47    
Precipitation  
Precipitation 0.00 in 0.16 in 1.92 in (1945)
Month to date precipitation 1.54 2.06  
Year to date precipitation 22.64 22.37  
Snow  
Snow 0.00 in - - ()
Month to date snowfall 0.0  
Since 1 June snowfall 0.0  
Since 1 July snowfall 0.0  
Snow Depth 0.00 in    
Sea Level Pressure  
Sea Level Pressure 30.09 in    
Wind  
Wind Speed 3 mph (NW)    
Max Wind Speed 16 mph    
Max Gust Speed 22 mph    
Visibility 10 miles    
Events      
T = Trace of Precipitation, MM = Missing Value Source: NWS Daily Summary

Daily Weather History Graph

Daily Weather History Graph

Search for Another Location

Airport or City:

Astronomy

Jul. 15, 2019 Rise Set
Actual Time 6:07 AM EDT 8:37 PM EDT
Civil Twilight 5:37 AM EDT 9:07 PM EDT
Nautical Twilight 5:00 AM EDT 9:44 PM EDT
Astronomical Twilight 4:18 AM EDT 10:25 PM EDT
Moon 7:52 PM EDT (7/15) 4:54 AM EDT (7/15)
Length of Visible Light 15h 29m
Length of Day
14h 29m
Waxing Gibbous, 98% of the Moon is Illuminated
Jul 15
Waxing Gibbous
Jul 16
Full
Jul 24
Last Quarter
Jul 31
New
Aug 7
First Quarter

Hourly Weather History & Observations

Time (EDT) Temp. Heat Index Dew Point Humidity Pressure Visibility Wind Dir Wind Speed Gust Speed Precip Events Conditions
12:54 AM 75.9 °F - 69.1 °F 79% 30.08 in 10.0 mi North 3.5 mph - N/A   Clear
1:54 AM 73.9 °F - 69.1 °F 85% 30.07 in 10.0 mi North 3.5 mph - N/A   Clear
2:54 AM 73.0 °F - 69.1 °F 87% 30.06 in 10.0 mi Calm Calm - N/A   Clear
3:54 AM 77.0 °F - 68.0 °F 74% 30.06 in 10.0 mi North 4.6 mph - N/A   Clear
4:54 AM 72.0 °F - 68.0 °F 87% 30.08 in 10.0 mi Calm Calm - N/A   Clear
5:54 AM 69.1 °F - 66.9 °F 93% 30.09 in 10.0 mi Calm Calm - N/A   Clear
6:54 AM 72.0 °F - 69.1 °F 91% 30.12 in 10.0 mi Calm Calm - N/A   Clear
7:54 AM 79.0 °F - 68.0 °F 69% 30.13 in 10.0 mi ENE 4.6 mph - N/A   Clear
8:54 AM 81.0 °F 83.0 °F 66.0 °F 60% 30.14 in 10.0 mi ENE 3.5 mph - N/A   Clear
9:54 AM 82.9 °F 85.0 °F 66.0 °F 56% 30.14 in 10.0 mi Calm Calm - N/A   Clear
10:54 AM 84.9 °F 87.6 °F 66.9 °F 55% 30.13 in 10.0 mi Calm Calm - N/A   Clear
11:54 AM 87.1 °F 91.3 °F 69.1 °F 55% 30.12 in 10.0 mi Variable 4.6 mph - N/A   Clear
12:54 PM 89.1 °F 93.7 °F 69.1 °F 52% 30.11 in 10.0 mi SW 5.8 mph - N/A   Clear
1:54 PM 90.0 °F 94.5 °F 69.1 °F 50% 30.09 in 10.0 mi Calm Calm - N/A   Scattered Clouds
2:54 PM 91.9 °F 96.9 °F 69.1 °F 47% 30.08 in 10.0 mi West 6.9 mph - N/A   Partly Cloudy
3:54 PM 91.0 °F 95.2 °F 68.0 °F 47% 30.06 in 10.0 mi SSW 6.9 mph - N/A   Mostly Cloudy
4:54 PM 91.0 °F 95.2 °F 68.0 °F 47% 30.05 in 10.0 mi SW 6.9 mph - N/A   Partly Cloudy
5:54 PM 89.1 °F 92.9 °F 68.0 °F 50% 30.06 in 10.0 mi WSW 3.5 mph - N/A   Clear
6:54 PM 80.1 °F 82.7 °F 68.0 °F 67% 30.07 in 10.0 mi NNE 6.9 mph - N/A   Scattered Clouds
7:54 PM 79.0 °F - 69.1 °F 72% 30.09 in 10.0 mi Calm Calm - N/A   Clear
8:54 PM 78.1 °F - 69.1 °F 74% 30.09 in 10.0 mi West 3.5 mph - N/A   Clear
9:54 PM 75.0 °F - 69.1 °F 82% 30.10 in 10.0 mi Calm Calm - N/A   Clear
10:54 PM 73.0 °F - 69.1 °F 87% 30.10 in 10.0 mi Calm Calm - N/A   Clear
11:54 PM 73.0 °F - 69.1 °F 87% 30.10 in 10.0 mi Calm Calm - N/A   Clear